Weather in Aga-Batyr

Russia / Stavropol Krai     44°00′27″N   44°48′34″E
temp.,
°C
wind,
m/s
gust,
m/s
humid.,
%
clouds,
%
prec.,
mm/h
press.,
hPa
HPBL,
m
18 may, tue
tue1800:00+18nw8168383 0.0 1006644
03:00+16wnw71491100 0.8 1008541
06:00+16wnw7148699 0.0 1009637
09:00+17nw51179100 0.2 1010642
12:00+21nw556111 0.1 1011961
15:00+23nw34557 0.1 10111127
18:00+23sw236138 0.0 1011213
21:00+18sw22730 0.0 101216
19 may, wed
wed1900:00+16n22780 0.0 101111
03:00+15e22745 0.0 101016
06:00+16ese367361 0.0 1009184
09:00+23e345369 0.0 1008845
12:00+26wnw11432 0.0 10081445
15:00+18nw131773100 0.0 1012599
18:00+15wnw41083100 1.1 1015621
21:00+14wsw2290100 3.3 1017135
20 may, thu
thu2000:00+15sw3591100 0.2 1017167
03:00+15sw2387100 0.2 101770
06:00+15se2382100 0.0 101899
09:00+20se45530 0.0 1017901
12:00+24ese56405 0.0 10161384
15:00+25ese56381 0.0 10141537
18:00+23ese475014 0.0 1015246
21:00+17se410535 0.0 1016205
21 may, fri
fri2100:00+14se36605 0.0 101576
03:00+13ese35620 0.0 101475
06:00+15e310650 0.0 1014290
09:00+22ese68500 0.0 1013610
12:00+28e78380 0.0 10111086
15:00+28e89360 0.0 10111176
18:00+24e812490 0.0 1011591
21:00+19e612561 0.0 1011377
22 may, sat
sat2200:00+16e37655 0.0 1010125
03:00+15e337128 0.0 100945
06:00+17e387324 0.0 1009275
09:00+23e67578 0.0 1008502
12:00+30e78395 0.0 1006880
15:00+32e783534 0.0 10051091
18:00+26e595098 0.0 1005276
21:00+20ene4864100 0.0 1006149